Regional Weather Roundup
Issued by NWS

Home | Current Version | Previous Version | Text Only | Print | Product List | Glossary On
Versions: 1 2 3 4 5 6 7 8 9 10 11 12 13 14 15 16 17 18 19 20 21 22 23 24 25 26 27 28 29 30 31 32 33 34 35 36 37 38 39 40 41 42 43 44 45 46 47 48 49 50
000
ASUS44 KLUB 190810
RWRTX
WEST TEXAS WEATHER ROUNDUP
NATIONAL WEATHER SERVICE LUBBOCK TX
200 AM CST FRI DEC 19 2014

NOTE: "FAIR" INDICATES FEW OR NO CLOUDS BELOW 12,000 FEET WITH NO
SIGNIFICANT WEATHER AND/OR OBSTRUCTIONS TO VISIBILITY.

TXZ004-006>008-010-012-014-016-OKZ002-190900-
TEXAS PANHANDLE/OKLAHOMA PANHANDLE

CITY           SKY/WX    TMP DP  RH WIND       PRES   REMARKS
AMARILLO       CLOUDY    36  34  92 S7        30.14F WCI  30
BORGER         CLOUDY    37  32  82 SW5       30.16F WCI  33
CANADIAN       CLOUDY    38  38  98 E3        30.17F FOG
DALHART        CLOUDY    32  30  92 S3        30.14S FOG
DUMAS          CLOUDY    32  30  90 S3        30.13F
GUYMON         CLOUDY    36  33  89 S3        30.14F
HEREFORD       DRIZZLE   37  36  96 SE7       30.13F WCI  31
PAMPA          CLOUDY    37  34  89 CALM      30.14F
PERRYTON       CLOUDY    36  35  96 SE3       30.16F
$$

TXZ026-029-035-045-048-190900-
SOUTHERN PANHANDLE/SOUTH PLAINS/ROLLING PLAINS

CITY           SKY/WX    TMP DP  RH WIND       PRES   REMARKS
CHILDRESS      CLOUDY    41  38  89 E6        30.17
SEMINOLE       MOCLDY    38  35  89 E8        30.12F WCI  32
LUBBOCK        LGT RAIN  39  37  92 SE9       30.12F WCI  33
PLAINVIEW      LGT RAIN  37  36  94 NE6       30.12S WCI  33
SNYDER         CLOUDY    39  36  88 NE13      30.13F WCI  32
$$

TXZ052-054-060>062-072-078-127-140-154-169-190900-
PERMIAN BASIN/CONCHO VALLEY/BIG COUNTRY/EDWARDS PLATEAU

CITY           SKY/WX    TMP DP  RH WIND       PRES   REMARKS
ABILENE        LGT RAIN  43  40  89 N9        30.12F
BIG SPRING     CLOUDY    42  38  83 N8        30.16R
BRADY          CLOUDY    46  46 100 NE8       30.09  FOG
BROWNWOOD      CLOUDY    46  41  81 E7        30.12R
JUNCTION       LGT RAIN  51  50  96 E14       30.07S FOG
MIDLAND        MOCLDY    42  37  82 N14       30.12S
ODESSA         MOCLDY    43  38  82 NE15      30.13F
SAN ANGELO     CLOUDY    49  44  83 NE8       30.09F
SONORA         LGT RAIN  52  48  87 N3        30.11S
SWEETWATER     CLOUDY    40  38  90 N10       30.16F WCI  34
WINK           CLOUDY    51  40  65 SW5       30.07F
$$

TXZ055-058-074-075-080-082-190900-
FAR WEST/SOUTHWEST MOUNTAINS/TRANS PECOS

CITY           SKY/WX    TMP DP  RH WIND       PRES   REMARKS
ALPINE         CLEAR     34  29  81 CALM      30.18S
DRYDEN           N/A     54  39  57 N6        30.04F
EL PASO        MOCLDY    43  39  86 CALM      30.13S
FORT STOCKTON  PTCLDY    43  31  62 W8        30.09S
MARFA          CLEAR     32  25  74 N5        30.14F WCI  27
PECOS          PTCLDY    44  33  64 NW6       30.10R
PRESIDIO       FAIR      47  33  59 N5        30.09S
$$

TXZ014-016-019-021>030-083-190900
TEXAS TECH WEST TEXAS MESONET/TEXAS PANHANDLE/NORTHERN SOUTH PLAINS

CITY           SKY/WX    TMP DP  RH WIND       PRES   REMARKS
ABERNATHY 5ENE   N/A     37  36  95 E6        30.13F WCI  33
AMARILLO 9NNE    N/A     36  34  93 SE3       30.13F
AMARILLO 7SSE    N/A     35  34  95 S5        30.14F WCI  31
AMHERST 1NE      N/A     37  36  96 E6        30.12F WCI  32
BOOTLEG 11WNW    N/A     33  32  97 SE8       30.11S WCI  26
CANADIAN 6E      N/A     36  36  99 E2        30.15F
CAPROCK CYN SP   N/A     38  37  93 SE5       30.17R WCI  35
CHILDRESS 2NNE   N/A     39  38  95 E8        30.16R WCI  34
CLARENDON 2WSW   N/A     38  35  90 E1        30.15S
CLAUDE 12SW      N/A     36  34  95 SW2       30.14S
DIMMITT 2NE      N/A     35  34  96 E5        30.12F WCI  31
FLOYDADA 2NNE    N/A     37  36  99 E5        30.13F WCI  33
FRIONA 2NE       N/A     35  33  95 E8        30.12F WCI  28
GOODLETT 3W      N/A     40  38  92 NE5       30.15F
HART 3N        LGT RAIN  36  35  98 NE5       30.12F WCI  32
HEREFORD 2NW     N/A     35  34  94 SE5       30.12F WCI  31
MCLEAN 1E        N/A     36  36  97 E2        30.13F
MEMPHIS 1NE      N/A     40  37  89 N1        30.17R
MULESHOE 2SSW    N/A     36  35  98 E6        30.11F WCI  31
OLTON 6S         N/A     37  35  94 N3        30.13S
PALO DURO SP     N/A     36  34  91 S3        30.15F
PAMPA 2E         N/A     36  34  93 S2        30.14F
PLAINVIEW 1S     N/A     37  36  98 NE6       30.13S WCI  32
SILVERTON 7ESE   N/A     37  36  95 E3        30.16R
TULIA 2ENE       N/A     36  35  98 N3        30.14F
TURKEY 2WSW      N/A     39  36  91 SE2       30.17R
UMBARGER 3NNE    N/A     35  33  96 SE7       30.13F WCI  29
$$

TXZ033>036-039>041-045>048-190900
TEXAS TECH WEST TEXAS MESONET/SOUTH PLAINS

CITY           SKY/WX    TMP DP  RH WIND       PRES   REMARKS
AIKEN 3WSW       N/A     37  36  97 NE6       30.15S WCI  32
ANDREWS 2NE      N/A     40  37  88 E9        30.12F WCI  34
ANTON 6SSW       N/A     38  37  94 SE1       30.13S
BROWNFIELD 2S    N/A     37  35  91 E5        30.13S WCI  33
DENVR CTY 7WNW   N/A     37  36  95 E6        30.10S WCI  32
GAIL 2ESE        N/A     39  36  86 N6        30.14F
LAMESA 2SE       N/A     38  36  91 NE5       30.15S WCI  35
LEVELLAND 4S     N/A     38  35  89 E3        30.12F
LUBBOCK 3WNW     N/A     39  37  91 SE7       30.13F WCI  34
MORTON 1ENE      N/A     36  35  98 E6        30.11F WCI  31
ODONNELL 1N      N/A     38  35  89 NE7       30.14S WCI  33
PLAINS 3N        N/A     39  37  94 SE9       30.10F WCI  32
RALLS 1SE        N/A     38  36  93 SE3       30.14F
REESE CENTER     N/A     38  36  92 SE5       30.12F WCI  35
SEAGRAVES 1SW    N/A     38  35  89 E6        30.12F WCI  33
SEMINOLE 2NNE    N/A     38  34  87 E8        30.11F WCI  32
SLATON 2NE       N/A     38  36  92 E6        30.13F WCI  33
SNYDER 3E        N/A     39  37  91 NE9       30.13F WCI  33
SUNDOWN 8SW      N/A     37  36  95 E8        30.11F WCI  31
TAHOKA 3NNE      N/A     38  35  90 E6        30.13F WCI  34
WOLFFORTH 6SSW   N/A     39  38  99 SE5       30.13S
$$

TXZ031-032-036>038-042>044-190900-
TEXAS TECH WEST TEXAS MESONET/ROLLING PLAINS

CITY           SKY/WX    TMP DP  RH WIND       PRES   REMARKS
ASPERMONT 3NE    N/A     42  37  80 N8        30.15F
FLUVANNA 3WNW    N/A     38  35  90 NE8       30.14R WCI  32
GRAHAM 5SSW      N/A     38  35  88 NE12      30.13F WCI  30
GUTHRIE 10WSW    N/A     41  36  83 NE5       30.15S
HASKELL 1NW      N/A     42  38  83 N9        30.15S
JAYTON 1SSE      N/A     41  37  84 NE7       30.15F
KNOX CITY 3NW    N/A     43  37  80 N7        30.16F
LK A HENRY 1NW   N/A     40  36  86 NE8       30.15S WCI  35
NORTHFIELD 1S    N/A     40  38  94 NE2       30.17R
ODELL 4ENE       N/A     41  40  95 NE6       30.17F
PADUCAH 10SW     N/A     40  37  89 E5        30.15F
POST 1NE         N/A     39  36  86 NE5       30.15S
RRING SPRGS 3N   N/A     38  37  98 N5        30.15R WCI  34
SEYMOUR 3NW      N/A     42  40  91 N9        30.16F
SPUR 1W          N/A     40  36  85 E6        30.15S
WHITE RVR 6NE    N/A     39  36  89 E2        30.14F
$$

TXZ052-054-060>062-072-078-127-140-154-169-190900-
TEXAS TECH WEST TEXAS MESONET/PERMIAN BASIN/
CONCHO VALLEY/BIG COUNTRY/EDWARDS PLATEAU

CITY           SKY/WX    TMP DP  RH WIND       PRES   REMARKS
COYANOSA 2N      N/A     41  31  66 S2        30.09F
JUNCTION 1SSW    N/A     50  50  99 NE10      30.08S
MERTZON 3NNE     N/A     47  43  87 NE6       30.11S
SAN ANGELO 7NW   N/A     46  41  83 N3        30.10S
STRLNG CT 4WSW   N/A     45  39  78 N6        30.12S
ST LAWRNCE 5SW   N/A     43  36  76 N8        30.10S
SWEETWATR 11SW   N/A     38  36  91 NE9       30.13F WCI  32
WALL 1E          N/A     48  43  83 N8        30.11R
$$

TXZ055-058-074-075-080-082-190900-
TEXAS TECH WEST TEXAS MESONET/FAR WEST/SOUTHWEST MOUNTAINS/TRANS PECOS

CITY           SKY/WX    TMP DP  RH WIND       PRES   REMARKS
PRSMN GAP BBNP   N/A     50  35  57 SW1       30.08S
$$



USA.gov is the U.S. government's official web portal to all federal, state and local government web resources and services.